CDT,Max TemperatureF,Mean TemperatureF,Min TemperatureF,Max Dew PointF,MeanDew PointF,Min DewpointF,Max Humidity, Mean Humidity, Min Humidity, Max Sea Level PressureIn, Mean Sea Level PressureIn, Min Sea Level PressureIn, Max VisibilityMiles, Mean VisibilityMiles, Min VisibilityMiles, Max Wind SpeedMPH, Mean Wind SpeedMPH, Max Gust SpeedMPH,PrecipitationIn, CloudCover, Events, WindDirDegrees
2013-8-1,88,80,73,79,74,70,94,85,66,30.05,29.98,29.93,10,10,10,9,2,18,1.18,5,Rain-Thunderstorm,234
2013-8-2,91,82,73,76,73,70,94,78,48,30.03,29.98,29.94,10,10,10,7,1,,0.00,2,,63
2013-8-3,93,84,75,76,73,67,94,73,44,30.07,30.03,29.99,10,10,10,9,2,,0.00,1,,317
2013-8-4,95,86,78,76,75,73,90,75,49,30.07,30.02,29.96,10,10,10,10,4,,0.00,1,Thunderstorm,313
2013-8-5,93,84,75,75,73,70,94,74,47,30.04,30.00,29.96,10,10,10,9,2,,0.00,1,,27
2013-8-6,93,83,73,74,72,70,94,78,50,30.07,29.99,29.93,10,10,10,16,3,28,1.32,2,Rain-Thunderstorm,32
2013-8-7,93,83,73,76,73,70,91,74,49,30.02,29.97,29.92,10,10,10,7,3,,0.01,1,,113
2013-8-8,91,83,75,76,74,70,91,78,52,30.02,29.98,29.95,10,10,10,8,2,,0.71,2,Rain-Thunderstorm,139
2013-8-9,91,83,75,77,74,72,94,81,54,30.08,30.04,29.98,10,10,10,13,4,29,0.00,3,Rain-Thunderstorm,143
2013-8-10,91,82,73,76,73,71,94,82,55,30.12,30.09,30.05,10,10,10,7,2,22,0.07,1,Rain-Thunderstorm,100
2013-8-11,93,83,73,75,72,70,94,76,48,30.18,30.13,30.07,10,10,10,9,2,,0.01,2,Thunderstorm,171
2013-8-12,93,83,73,75,72,70,94,80,50,30.14,30.09,30.04,10,10,10,29,3,38,1.08,1,Rain-Thunderstorm,323
2013-8-13,88,82,75,77,74,71,91,83,61,30.04,29.99,29.94,10,10,10,12,3,18,0.11,2,Rain-Thunderstorm,278
2013-8-14,88,82,75,77,73,72,94,85,59,29.98,29.94,29.89,10,10,10,8,3,,0.25,6,Rain-Thunderstorm,309
2013-8-15,87,81,75,75,73,72,94,85,62,29.99,29.95,29.91,10,10,10,8,3,16,0.37,8,Rain,54
2013-8-16,82,76,71,72,71,69,94,83,66,30.05,29.99,29.95,10,10,10,9,5,,0.01,7,,73
2013-8-17,73,72,71,72,70,68,94,90,87,30.06,30.03,29.98,10,10,10,9,5,,1.15,7,Rain,117
2013-8-18,81,76,71,77,71,68,94,90,74,30.10,30.06,30.04,10,10,10,12,6,20,2.54,6,Rain-Thunderstorm,121
2013-8-19,89,80,71,76,73,69,94,84,59,30.08,30.04,29.99,10,10,10,8,4,,0.68,4,Rain-Thunderstorm,120
2013-8-20,86,79,72,75,72,70,94,86,67,30.14,30.08,30.01,10,10,10,8,3,,0.12,3,Rain-Thunderstorm,142
2013-8-21,91,82,72,75,71,69,94,80,50,30.17,30.12,30.06,10,10,10,7,3,,0.00,2,Thunderstorm,126
2013-8-22,89,80,72,74,72,69,94,79,55,30.12,30.07,30.00,10,10,10,15,4,32,0.01,2,Thunderstorm,123
2013-8-23,88,80,72,72,71,69,94,77,55,30.05,30.02,29.97,10,10,10,8,2,,0.00,0,,124
2013-8-24,90,80,71,75,71,68,94,82,53,30.20,30.08,30.02,10,10,10,16,2,39,1.19,3,Rain-Thunderstorm,131
2013-8-25,87,79,71,73,70,66,94,79,57,30.23,30.19,30.14,10,10,10,13,8,24,0.16,4,Rain,115
2013-8-26,86,76,66,64,62,59,81,63,40,30.23,30.18,30.12,10,10,10,13,5,21,0.00,0,,99
2013-8-27,89,78,68,68,64,61,82,65,43,30.13,30.08,30.03,10,10,10,9,3,,0.00,2,,62
2013-8-28,90,80,70,71,67,64,90,68,43,30.09,30.03,30.00,10,10,10,7,1,,0.00,1,,41
2013-8-29,91,80,70,73,69,66,90,70,47,30.06,30.01,29.96,10,10,10,9,2,,0.00,0,,337
2013-8-30,93,84,75,76,73,71,87,72,47,30.01,29.95,29.90,10,10,10,12,3,,0.00,2,,323
2013-8-31,91,83,75,76,74,71,91,79,50,29.95,29.90,29.86,10,10,10,7,4,,0.00,2,Thunderstorm,57